Oculus-ASR (44356 NORAD) Tracking and Keplerian Element Data

This shows tracking and keplerian element data for the satellite.

Feedback or suggestion? Click here.




ElementValue
Catalog44356
NameOculus-ASR
Epoch Orbit1709
Epoch Day290.0385567
Epoch Year2019
RAAN176.8775
Inclination28.5264
Eccentricity0.0365428
Argument of Perigee234.9621
Mean Anonmoly121.6163
Mean Motion15.04875572
Decay Rate0.00029043
L11 44356U 19036T 19290.03855670 .00029043 00000-0 39886-3 0 9991
L22 44356 28.5264 176.8775 0365428 234.9621 121.6163 15.04875572 17098

Live tracking and technical data element details for Oculus-ASR (NORAD 44356). Oculus-ASR can be tracked NOW for your location showing map with azimuth and elevation plus other details from your city location.

Track the satellite on the map from your city or location and see movement details for azimuth, elevation, latitude, longitude, range, height, and movement on the map or in text.







IsCatalogInMostPopularTable: catalog: 44356, numindb: 21
Update: records affected: 1



GetName: 44356 Oculus-ASR

Hit Count: updated at: Tue, 22 Oct 2019 23:28:52 GMT